STARLINK-11436, 62887

Orbit data source: Space-Track

STARLINK-11436, 62887 is a payload satellite owned by SpaceX/Seattle (US) in LEO that was launched on Tue, 04 Feb 2025 UTC via an FALCON 9 launch vehicle from the Air Force Eastern Test Range (AFETR). Payload-class satellites include a variety of spacecraft equipped with specific instruments for various scientific and technological missions. These include communications satellites like Starlink; space stations such as the ISS; scientific satellites like the Hubble; Earth observation satellites from companies like Planet Labs, Umbra, and HawkEye 360; GPS; miniature CubeSats for education and research; and military/defense satellites.

Loading next visibility...
Identifier
62887, 2025-024J
Orbit
LEO
Country
Flag of USUS
Related business
Manufacturer
SpaceX/Seattle
Mission
Operational Commercial Communications
Bus & Motor
STARLINK V2MD, Unknown motor
Mass
960 kg wet, ~910 kg dry
Launch date (UTC)
2025-02-04 (1 year ago)
Launch vehicle
FALCON 9
Launch site
Air Force Eastern Test Range (AFETR)
Object type
Payload
Rocket body
Debris
Shape & HBR
Box + 2 Pan, 18.1 m
Radar Cross Section
36.964 m², Large (>1 m²)

Expand to show TLE details & history
Last TLE update: 16 hours ago

TLE from 16 hours ago
0 STARLINK-11436
1 62887U 25024J   26129.83227176  .00166326  00000-0  12726-2 0  9994
2 62887  43.0026 172.8273 0001345 281.8880  78.1836 15.70864785 73088
Epoch: 2026-05-09T19:58Z
TLE epoch observation values (Epoch: 2026-05-09T19:58:28.280Z)
Latitude
-0.00006°
Longitude
5.56536°
Altitude
356.01 km
Speed
7.698 km/s
True Right ascension
11h 31m 18s
True Declination
0° 00' 00"
Sunlit
Object was in full shadow at epoch
Visualization orbit readout
Latitude
Unknown
Longitude
Unknown
Altitude
Unknown
Speed
Unknown
Apparent Right ascension
Unknown
Apparent Declination
Unknown
Sunlit
N/A
Visualization observer readout
Local Sidereal Time
20:25:14
Azimuth
Unknown
Elevation
Unknown
Doppler factor
Unknown
Orbital elements
Apogee altitude
359.311 km
Perigee altitude
357.499 km
Semi-major axis
6,736.542 km
Eccentricity
0.00013
Inclination
43.0026°
RAAN
172.8273°
Arg. of periapsis
281.888°
True anomaly
78.19869°
Mean anomaly
78.1836°
Eccentric anomaly
78.19114°
Mean motion
3.92543 °/min
Orbital period
91.71 mins
BSTAR
0.0012726
Loading maneuver chart data...
Computing Atmospheric mass density...
Loading historical data...
Loading historical data...
Loading historical data...
Loading historical data...
Loading historical data...
Loading historical data...
Loading historical data...

Documentation

Showing up to 5 results
|